Weather History for KDLN - March, 2014

Change the Weather History Date:

Saturday, March 22, 2014

  Actual Average Record
Temperature  
Mean Temperature 27 °F 36 °F  
Max Temperature 40 °F 48 °F 67 °F (1972)
Min Temperature 14 °F 24 °F -4 °F (1952)
Degree Days  
Heating Degree Days 38    
Month to date heating degree days 674  
Since 1 July heating degree days 6454  
Cooling Degree Days 0    
Month to date cooling degree days 0  
Year to date cooling degree days 0  
Moisture  
Dew Point 10 °F    
Average Humidity 57    
Maximum Humidity 88    
Minimum Humidity 25    
Precipitation  
Precipitation T in 0.02 in 0.72 in (2009)
Month to date precipitation 0.23 0.34  
Year to date precipitation 0.46 0.86  
Snow  
Snow 0.00 in - - ()
Snow Depth 0.00 in    
Sea Level Pressure  
Sea Level Pressure 30.29 in    
Wind  
Wind Speed 5 mph (NE)    
Max Wind Speed 20 mph    
Max Gust Speed 28 mph    
Visibility 9 miles    
Events Snow    
T = Trace of Precipitation, MM = Missing Value Source: NWS Daily Summary

Daily Weather History Graph

Daily Weather History Graph

Search for Another Location

Airport or City:

Trip Planner

Search our weather history database for the weather conditions in past years. The results will help you decide how hot, cold, wet, or windy it might be!

Date:

Astronomy

Mar. 22, 2014 Rise Set
Actual Time 7:29 AM MDT 7:45 PM MDT
Civil Twilight 6:59 AM MDT 8:14 PM MDT
Nautical Twilight 6:25 AM MDT 8:49 PM MDT
Astronomical Twilight 5:49 AM MDT 9:25 PM MDT
Moon 1:21 AM MDT (3/22) 11:02 AM MDT (3/22)
Length of Visible Light 13h 15m
Length of Day
12h 16m
Waning Gibbous, 65% of the Moon is Illuminated
Mar 22
Waning Gibbous
Mar 23
Last Quarter
Mar 30
New
Apr 7
First Quarter
Apr 15
Full

Hourly Weather History & Observations

Time (MDT) Temp. Windchill Dew Point Humidity Pressure Visibility Wind Dir Wind Speed Gust Speed Precip Events Conditions
12:53 AM 19.0 °F 2.4 °F 10.9 °F 71% 30.23 in 10.0 mi ENE 21.9 mph 33.4 mph N/A   Clear
1:53 AM 17.1 °F 3.0 °F 10.9 °F 77% 30.25 in 10.0 mi NE 13.8 mph - N/A   Clear
2:53 AM 16.0 °F 1.1 °F 10.0 °F 77% 30.27 in 10.0 mi ENE 15.0 mph - N/A   Clear
3:53 AM 15.1 °F 4.2 °F 10.0 °F 80% 30.26 in 10.0 mi East 8.1 mph - N/A   Clear
4:53 AM 14.0 °F 3.9 °F 10.9 °F 88% 30.28 in 10.0 mi East 6.9 mph - N/A   Partly Cloudy
5:53 AM 15.1 °F 9.4 °F 10.9 °F 84% 30.30 in 10.0 mi ENE 3.5 mph - N/A   Overcast
6:53 AM 15.1 °F 5.2 °F 10.0 °F 80% 30.33 in 10.0 mi NNE 6.9 mph - N/A   Overcast
7:33 AM 15.1 °F 5.2 °F 10.9 °F 84% 30.20 in 9.0 mi NNE 6.9 mph - N/A   Overcast
7:42 AM 15.1 °F 5.2 °F 10.9 °F 84% 30.20 in 7.0 mi NNE 6.9 mph - N/A   Overcast
7:53 AM 15.1 °F 5.2 °F 10.9 °F 84% 30.37 in 5.0 mi NE 6.9 mph - 0.00 in Snow Light Snow
8:53 AM 17.1 °F 7.6 °F 12.0 °F 81% 30.40 in 5.0 mi ENE 6.9 mph - 0.00 in Snow Light Snow
9:53 AM 19.9 °F 11.1 °F 12.0 °F 71% 30.40 in 7.0 mi NE 6.9 mph - 0.00 in   Overcast
10:53 AM 21.0 °F 13.4 °F 10.9 °F 65% 30.40 in 10.0 mi NNE 5.8 mph - N/A   Overcast
11:53 AM 24.1 °F 19.7 °F 12.0 °F 60% 30.40 in 10.0 mi North 3.5 mph - N/A   Mostly Cloudy
12:53 PM 25.0 °F 19.3 °F 12.0 °F 58% 30.38 in 10.0 mi Variable 4.6 mph - N/A   Clear
1:53 PM 28.9 °F - 12.0 °F 49% 30.36 in 10.0 mi Calm Calm - N/A   Clear
2:53 PM 32.0 °F 28.7 °F 10.0 °F 40% 30.32 in 10.0 mi Variable 3.5 mph - N/A   Clear
3:53 PM 33.1 °F - 8.1 °F 35% 30.30 in 10.0 mi Calm Calm - N/A   Clear
4:53 PM 35.1 °F - 6.1 °F 30% 30.27 in 10.0 mi Calm Calm - N/A   Clear
5:53 PM 37.9 °F - 6.1 °F 27% 30.23 in 10.0 mi Calm Calm - N/A   Clear
6:53 PM 39.0 °F - 6.1 °F 26% 30.21 in 10.0 mi Calm Calm - N/A   Clear
7:53 PM 30.0 °F 22.4 °F 7.0 °F 38% 30.24 in 10.0 mi ENE 8.1 mph - N/A   Clear
8:53 PM 24.1 °F 18.2 °F 10.0 °F 55% 30.26 in 10.0 mi NW 4.6 mph - N/A   Clear
9:53 PM 25.0 °F 18.1 °F 10.0 °F 53% 30.25 in 10.0 mi SSE 5.8 mph - N/A   Clear
10:53 PM 28.0 °F 22.8 °F 10.0 °F 47% 30.21 in 10.0 mi SSW 4.6 mph - N/A   Clear
11:53 PM 25.0 °F 17.1 °F 10.0 °F 53% 30.20 in 10.0 mi SSW 6.9 mph - N/A   Clear